TIME,DELAY(SENSOR),PRES,OXYGEN,RAWTEMP,T(OPTODE),TCPHASE,FLUOR,BETA(BETA700),BETA(BETA412),BETA(BETA440),CDOM,C(CSC),ED(ED412.40),ED(ED444.00),ED(ED489.70),ED(ED554.30),LU(LU411.80),LU(LU443.40),LU(LU489.60),LU(LU554.10),COMP,TILTX,TILTY,CHECK
1345174896,5809,863.3499755859375000,45.3471488952636700,659.7086791992188000,4.6375598907470700,54.2000389099121100,52,100,87,80,81,15349,2147759250,2147421202,2148006198,2147871945,2147640475,2147061705,2148257819,2147200365,2156,4,13,36849
1345178492,5810,958.6900024414062000,48.8380889892578100,668.5689697265625000,4.3454589843750000,53.8130607604980500,53,98,88,78,81,15352,2147756918,2147421924,2148007945,2147870363,2147644032,2147057865,2148258249,2147198482,2576,4,13,41462
1345182092,5809,958.3499755859375000,48.6391181945800800,671.9534912109375000,4.2336440086364750,53.8852386474609400,52,98,89,81,81,15341,2147758610,2147417846,2148008137,2147872859,2147644900,2147054921,2148261430,2147201984,1667,5,13,10538
1345185692,5806,990.3499755859375000,50.9374008178710940,676.7614746093750000,4.0745787620544430,53.6267700195312500,54,99,86,80,82,15342,2147758957,2147421284,2148006921,2147872877,2147642733,2147057216,2148259072,2147200274,1812,5,13,44715
1345189292,5810,997.5900268554688000,51.2141914367675800,677.1961059570312000,4.0601878166198730,53.5977897644043000,52,98,89,79,81,15333,2147758592,2147418349,2148008173,2147870829,2147643574,2147058870,2148256868,2147198326,3550,5,13,57096
1345192892,5813,1001.1400146484375000,51.1390800476074200,676.9437255859375000,4.0685482025146480,53.6022682189941400,52,97,85,79,81,15337,2147754898,2147416987,2148006701,2147871698,2147642944,2147058185,2148263506,2147202148,30,5,13,43061
1345196492,5809,1004.8200073242188000,50.8194503784179700,676.9403076171875000,4.0686588287353520,53.6460418701171900,52,98,85,78,82,15339,2147756224,2147418834,2148007881,2147871149,2147643190,2147053357,2148263104,2147198720,327,5,13,19045
1345200092,5809,1004.9400024414062000,50.8557281494140600,677.2437133789062000,4.0586128234863280,53.6413993835449200,53,99,88,79,82,15339,2147759122,2147420470,2148006372,2147872822,2147644964,2147056850,2148259858,2147199606,337,4,13,52383
1345203692,5809,1016.8800048828125000,50.0008888244628900,675.5781250000000000,4.1137537956237790,53.7407302856445300,53,99,89,79,83,15333,2147758756,2147419264,2148006610,2147874395,2147644150,2147056192,2148261632,2147201197,2945,4,13,4357
1345207292,5809,1013.4199829101562000,49.9348182678222660,675.5759277343750000,4.1138291358947750,53.7496185302734400,52,99,87,78,82,15334,2147761133,2147421440,2148006189,2147874614,2147643401,2147053750,2148260699,2147196571,2961,4,13,58287
1345210892,5810,1016.6699829101562000,49.9442596435546900,675.5089111328125000,4.1160469055175780,53.7504692077636700,53,99,86,79,81,15332,2147760530,2147420013,2148007725,2147876260,2147645101,2147059008,2148258304,2147199241,3321,5,13,32174
1345214492,5806,1010.1900024414062000,49.5885581970214840,675.7844238281250000,4.1069259643554690,53.8008384704589840,53,98,85,78,82,15333,2147758857,2147420982,2148006061,2147873837,2147643757,2147058422,2148260205,2147195273,3570,4,13,15916
1345218092,5809,1013.8200073242188000,49.8563117980957000,676.2838745117188000,4.0903911590576170,53.7667312622070300,53,101,87,79,82,15327,2147760539,2147419181,2148008091,2147871369,2147643913,2147058395,2148260726,2147197330,57,4,13,8806
1345221692,5809,1014.0200195312500000,49.6503105163574200,676.3444213867188000,4.0883879661560060,53.8010292053222660,53,98,91,78,82,15328,2147761837,2147418605,2148008612,2147877403,2147645037,2147054729,2148262089,2147200356,73,5,13,34629
1345225292,5808,1008.4899902343750000,50.2220611572265600,677.1113281250000000,4.0629959106445310,53.7286415100097660,52,98,86,80,82,15328,2147761554,2147418386,2148008429,2147871917,2147647341,2147059108,2148260781,2147198427,187,4,13,33843
1345228892,5809,1005.3699951171875000,50.2985916137695300,678.6840209960938000,4.0109019279479980,53.7419700622558600,52,98,83,79,83,15327,2147760493,2147420452,2148009709,2147875218,2147643382,2147053760,2148259145,2147193910,144,5,13,53622
1345232492,5810,1007.7999877929688000,50.6926994323730500,677.5283813476562000,4.0491828918457030,53.6711616516113300,53,99,88,79,82,15326,2147759414,2147420379,2148006656,2147872475,2147645156,2147058139,2148260361,2147196096,25,5,13,36146
1345236092,5809,1016.5499877929688000,50.1989784240722660,677.1760253906250000,4.0608558654785160,53.7309799194335940,53,97,86,79,81,15321,2147758765,2147419593,2148007542,2147875565,2147642258,2147056960,2148260452,2147196022,126,5,13,30259
1345239692,5808,1005.3599853515625000,50.4724693298339840,678.1060791015625000,4.0300459861755370,53.7053718566894500,52,99,91,79,82,15324,2147760146,2147419904,2148009298,2147875648,2147642733,2147060260,2148261494,2147197037,2191,4,13,58013
1345243292,5806,1014.5499877929688000,49.5609893798828100,678.1428222656250000,4.0288310050964355,53.8344917297363300,52,99,89,79,81,15323,2147759341,2147419675,2148006948,2147875264,2147643547,2147059648,2148258834,2147202642,689,5,13,18417
1345246892,5807,1016.9000244140625000,50.1400184631347660,677.3626098632812000,4.0546741485595700,53.7439918518066400,52,97,89,79,82,15323,2147758134,2147416566,2148008201,2147874916,2147643172,2147053248,2148259611,2147198043,200,4,13,62761
1345250492,5809,1011.7899780273438000,49.9755592346191400,677.2606201171875000,4.0580520629882810,53.7641716003418000,52,99,86,80,83,15323,2147761353,2147420498,2148008219,2147869952,2147643730,2147055817,2148261330,2147198061,6,5,13,46719
1345254092,5809,1020.6799926757812000,49.6487808227539060,677.4022827148438000,4.0533599853515625,53.8153305053710940,52,98,84,79,80,15321,2147760585,2147423378,2148008850,2147871725,2147646418,2147055460,2148258688,2147200210,360,5,13,43910
1345257692,5808,1027.8599853515625000,50.7590293884277340,675.1486206054688000,4.1279678344726560,53.6316795349121100,52,98,87,79,81,15317,2147759506,2147421312,2148008886,2147877312,2147646500,2147058413,2148261586,2147198262,635,4,13,46492
1345261292,5810,1021.9899902343750000,50.5685691833496100,675.4868774414062000,4.1167740821838380,53.6627311706543000,53,103,88,78,82,15321,2147757750,2147418898,2148004361,2147874898,2147643044,2147057389,2148261769,2147199424,3497,4,13,35859
1345264892,5809,1030.6600341796875000,50.3973007202148440,674.9155273437500000,4.1356830596923830,53.6762619018554700,53,98,85,79,82,15320,2147759981,2147421046,2148009865,2147873828,2147645668,2147062080,2148258313,2147199588,77,5,13,7018
1345268492,5812,1016.9799804687500000,49.7885818481445300,674.9885253906250000,4.1332659721374510,53.7614707946777340,52,96,92,79,81,15317,2147759926,2147421577,2148007268,2147874276,2147640685,2147057197,2148260169,2147201005,2513,5,13,47212
1345272092,5806,1012.0300292968750000,50.0359306335449200,677.1176757812500000,4.0627818107604980,53.7550582885742200,52,99,90,82,83,15315,2147759451,2147417709,2148004790,2147874816,2147646738,2147057700,2148261019,2147198290,2961,4,13,50932
1345275692,5808,1018.4400024414062000,50.3085098266601560,678.1909790039062000,4.0272350311279300,53.7323188781738300,52,98,89,80,80,15317,2147760694,2147419364,2148004955,2147875648,2147644955,2147061549,2148264438,2147198646,2842,4,13,49727
1345279292,5808,1014.5900268554688000,49.7200584411621100,678.8157958984375000,4.0065350532531740,53.8182106018066400,52,100,92,80,81,15315,2147762221,2147422692,2148009115,2147872667,2147643574,2147055478,2148264731,2147195282,243,4,13,5515
1345282892,5808,1014.2500000000000000,49.8492698669433600,679.4675903320312000,3.9849359989166260,53.8091506958007800,52,100,87,78,82,15316,2147758345,2147420672,2148009920,2147872594,2147645824,2147058861,2148261595,2147201078,313,4,13,28524
1345286492,5808,1018.4000244140625000,49.9659309387207000,678.3394165039062000,4.0223221778869630,53.7773094177246100,53,103,86,80,81,15312,2147761444,2147420461,2148006464,2147875236,2147643968,2147057938,2148259446,2147201490,3146,4,13,4128
1345290092,5810,1023.8099975585938000,49.7359390258789060,677.3894042968750000,4.0537872314453125,53.7990188598632800,53,99,91,79,82,15313,2147760438,2147420397,2148007606,2147877321,2147644745,2147059977,2148262564,2147197622,252,4,13,43067
1345293692,5807,1026.7900390625000000,48.9982109069824200,676.7109985351562000,4.0762519836425780,53.8900108337402340,52,97,89,79,82,15314,2147761609,2147420132,2148005394,2147872667,2147646381,2147056886,2148262921,2147196160,2698,4,13,56735
1345297292,5809,1020.9099731445312000,48.8625411987304700,676.8140258789062000,4.0728402137756350,53.9156188964843750,52,100,87,79,80,15312,2147760448,2147418468,2148009078,2147872274,2147644928,2147062400,2148261467,2147198016,203,5,13,22522
1345300892,5807,1017.4600219726562000,49.1204986572265600,676.6292724609375000,4.0789570808410645,53.8784484863281250,52,100,88,80,82,15311,2147760512,2147420864,2148004589,2147874148,2147640832,2147060114,2148259629,2147198692,108,5,13,41314
1345304492,5811,1024.3800048828125000,49.5693092346191400,676.8533935546875000,4.0715370178222660,53.8137397766113300,53,99,90,79,81,15312,2147756644,2147419904,2148006555,2147875620,2147643885,2147052882,2148266880,2147201005,248,5,13,55490
1345308092,5809,1019.8400268554688000,48.6306915283203100,676.8475952148438000,4.0717301368713380,53.9447784423828100,53,97,87,79,82,15307,2147758902,2147419968,2148002166,2147875108,2147643931,2147058688,2148257993,2147195053,289,5,13,38302
1345311692,5809,1019.5999755859375000,49.3070297241210940,678.0718994140625000,4.0311808586120605,53.8653907775878900,53,100,89,79,82,15311,2147761243,2147420681,2148008886,2147875456,2147641837,2147058934,2148264475,2147199104,81,5,13,3211
1345315292,5808,1025.3800048828125000,49.7891693115234400,678.3413085937500000,4.0222568511962890,53.8032989501953100,52,99,86,79,82,15310,2147763117,2147418916,2148007689,2147875099,2147645266,2147060425,2148268352,2147200091,3354,4,13,22521
1345318892,5811,1024.3100585937500000,49.7805290222168000,678.3281250000000000,4.0226941108703610,53.8027992248535160,53,98,88,79,81,15308,2147761417,2147421878,2148007360,2147870966,2147643154,2147057179,2148264713,2147198875,3515,5,13,37506
1345319456,5809,1020.4199829101562000,49.8334693908691400,678.1926269531250000,4.0271840095520020,53.7970314025878900,52,98,85,78,81,15337,2147759442,2147420214,2148009289,2147875190,2147640768,2147057782,2148260598,2147199524,92,5,13,2665
